SWA1243 KMCO-KIND

Flight info

Callsign SWA1243
Flight time 2h 23m
Altitude 40000
Route RDSOX1 JFRYS BRUTS Q118 THRSR Q79 SWAPP HAGAL GIIBS4
Aircraft B737/M-SADE2E3GIJ4RWZ/LB1D1

Departure

Time 2026-04-25 00:01
Airport Orlando International Airport (KMCO)

Arrival

Time 2026-04-25 02:24
Airport Indianapolis International Airport (KIND)
Time Latitude Longitude Altitude Speed Heading
2026-04-24 23:37 28.43410 -81.30115 93 ft 0 kts 63°
2026-04-24 23:50 28.43405 -81.30127 94 ft 4 kts 63°
2026-04-24 23:50 28.43395 -81.30149 94 ft 4 kts 63°
2026-04-24 23:50 28.43381 -81.30174 94 ft 4 kts 49°
2026-04-24 23:51 28.43367 -81.30192 94 ft 3 kts 48°
2026-04-24 23:51 28.43365 -81.30195 94 ft 0 kts 48°
2026-04-24 23:55 28.43366 -81.30193 94 ft 2 kts 50°
2026-04-24 23:55 28.43345 -81.30172 97 ft 7 kts 161°
2026-04-24 23:55 28.43283 -81.30102 94 ft 19 kts 109°
2026-04-24 23:56 28.43302 -81.29946 94 ft 21 kts 66°
2026-04-24 23:56 28.43371 -81.29809 94 ft 20 kts 20°
2026-04-24 23:56 28.43493 -81.29807 96 ft 14 kts 360°
2026-04-24 23:56 28.43538 -81.29789 95 ft 2 kts 46°
2026-04-24 23:57 28.43539 -81.29787 94 ft 0 kts 47°
2026-04-24 23:57 28.43541 -81.29785 94 ft 2 kts 51°
2026-04-24 23:57 28.43550 -81.29740 94 ft 9 kts 89°
2026-04-24 23:58 28.43550 -81.29688 93 ft 0 kts 89°
2026-04-24 23:59 28.43550 -81.29683 94 ft 4 kts 89°
2026-04-24 23:59 28.43547 -81.29622 97 ft 10 kts 107°
2026-04-24 23:59 28.43486 -81.29586 98 ft 10 kts 176°
2026-04-24 23:59 28.43464 -81.29586 96 ft 0 kts 179°
2026-04-25 00:00 28.43462 -81.29586 98 ft 3 kts 179°
2026-04-25 00:00 28.43187 -81.29584 97 ft 85 kts 179°
2026-04-25 00:00 28.42312 -81.29572 120 ft 160 kts 178°
2026-04-25 00:01 28.41131 -81.29566 851 ft 174 kts 174°
2026-04-25 00:01 28.39925 -81.29548 1949 ft 175 kts 178°
2026-04-25 00:01 28.38703 -81.30044 2648 ft 207 kts 217°
2026-04-25 00:01 28.37692 -81.31345 3228 ft 227 kts 230°
2026-04-25 00:02 28.36687 -81.32702 4254 ft 226 kts 227°
2026-04-25 00:02 28.35662 -81.34084 5289 ft 236 kts 230°
2026-04-25 00:02 28.34652 -81.35572 6410 ft 242 kts 239°
2026-04-25 00:02 28.34215 -81.37529 7076 ft 278 kts 271°
2026-04-25 00:03 28.34495 -81.39702 8484 ft 272 kts 279°
2026-04-25 00:03 28.34878 -81.41828 9835 ft 277 kts 281°
2026-04-25 00:03 28.35274 -81.43994 10938 ft 290 kts 281°
2026-04-25 00:03 28.35697 -81.46357 11379 ft 322 kts 281°
2026-04-25 00:04 28.36144 -81.48975 11808 ft 348 kts 281°
2026-04-25 00:04 28.36589 -81.51711 12811 ft 354 kts 280°
2026-04-25 00:04 28.37024 -81.54482 13907 ft 358 kts 280°
2026-04-25 00:04 28.37453 -81.57292 14932 ft 364 kts 280°
2026-04-25 00:05 28.37878 -81.60109 15864 ft 370 kts 280°
2026-04-25 00:05 28.38311 -81.63009 16778 ft 375 kts 280°
2026-04-25 00:05 28.38750 -81.65958 17663 ft 381 kts 280°
2026-04-25 00:05 28.39194 -81.68951 18509 ft 386 kts 280°
2026-04-25 00:06 28.39491 -81.70958 19049 ft 390 kts 280°
2026-04-25 00:06 28.39942 -81.74012 19863 ft 394 kts 280°
2026-04-25 00:06 28.40398 -81.77106 20647 ft 399 kts 280°
2026-04-25 00:06 28.40858 -81.80226 21403 ft 403 kts 280°
2026-04-25 00:07 28.41321 -81.83373 22101 ft 407 kts 280°
2026-04-25 00:07 28.41789 -81.86564 22772 ft 411 kts 280°
2026-04-25 00:07 28.42260 -81.89780 23401 ft 415 kts 280°
2026-04-25 00:07 28.42664 -81.93041 23991 ft 419 kts 275°
2026-04-25 00:08 28.42788 -81.96363 24563 ft 423 kts 272°
2026-04-25 00:08 28.42822 -81.99722 25136 ft 426 kts 271°
2026-04-25 00:08 28.42834 -82.03109 25709 ft 429 kts 271°
2026-04-25 00:08 28.42851 -82.06505 26272 ft 432 kts 271°
2026-04-25 00:09 28.42881 -82.09880 26784 ft 434 kts 272°
2026-04-25 00:09 28.42924 -82.13370 27269 ft 438 kts 272°
2026-04-25 00:09 28.42972 -82.16833 27762 ft 440 kts 272°
2026-04-25 00:09 28.43025 -82.20316 28312 ft 440 kts 272°
2026-04-25 00:10 28.43077 -82.23794 28774 ft 442 kts 272°
2026-04-25 00:10 28.43128 -82.27308 29170 ft 446 kts 272°
2026-04-25 00:10 28.43178 -82.30830 29593 ft 448 kts 272°
2026-04-25 00:10 28.43227 -82.34372 30143 ft 446 kts 272°
2026-04-25 00:11 28.43274 -82.37872 30870 ft 441 kts 272°
2026-04-25 00:11 28.43489 -82.41274 31551 ft 435 kts 283°
2026-04-25 00:11 28.44518 -82.44478 32120 ft 431 kts 298°
2026-04-25 00:11 28.46228 -82.47268 32689 ft 430 kts 310°
2026-04-25 00:12 28.48392 -82.49596 33265 ft 429 kts 321°
2026-04-25 00:12 28.50988 -82.51292 33738 ft 432 kts 333°
2026-04-25 00:12 28.53752 -82.52622 34269 ft 430 kts 335°
2026-04-25 00:12 28.56542 -82.53879 34700 ft 430 kts 335°
2026-04-25 00:13 28.59336 -82.55118 35071 ft 431 kts 335°
2026-04-25 00:13 28.62125 -82.56364 35473 ft 431 kts 335°
2026-04-25 00:13 28.64909 -82.57622 35856 ft 430 kts 335°
2026-04-25 00:13 28.67687 -82.58894 36263 ft 430 kts 335°
2026-04-25 00:14 28.70459 -82.60175 36617 ft 429 kts 334°
2026-04-25 00:14 28.73228 -82.61462 36955 ft 429 kts 334°
2026-04-25 00:14 28.75985 -82.62746 37404 ft 426 kts 334°
2026-04-25 00:14 28.78723 -82.64023 37904 ft 422 kts 334°
2026-04-25 00:15 28.81423 -82.65283 38323 ft 419 kts 334°
2026-04-25 00:15 28.84123 -82.66545 38639 ft 419 kts 334°
2026-04-25 00:15 28.86822 -82.67808 38895 ft 420 kts 334°
2026-04-25 00:15 28.89495 -82.69060 39110 ft 421 kts 334°
2026-04-25 00:16 28.92215 -82.70333 39382 ft 422 kts 334°
2026-04-25 00:16 28.94931 -82.71605 39669 ft 421 kts 334°
2026-04-25 00:16 28.97644 -82.72876 39935 ft 421 kts 334°
2026-04-25 00:16 29.00369 -82.74153 39952 ft 426 kts 334°
2026-04-25 00:17 29.05861 -82.76729 39963 ft 425 kts 334°
2026-04-25 00:17 29.11296 -82.79279 39968 ft 419 kts 334°
2026-04-25 00:18 29.16668 -82.81785 39590 ft 425 kts 335°
2026-04-25 00:18 29.19384 -82.83049 39783 ft 418 kts 334°
2026-04-25 00:18 29.22068 -82.84318 39847 ft 416 kts 334°
2026-04-25 00:19 29.27404 -82.86853 39946 ft 413 kts 334°
2026-04-25 00:19 29.32733 -82.89375 39958 ft 415 kts 334°
2026-04-25 00:20 29.38092 -82.91908 39965 ft 418 kts 334°
2026-04-25 00:20 29.43497 -82.94463 39972 ft 421 kts 334°
2026-04-25 00:21 29.48932 -82.97035 39956 ft 424 kts 334°
2026-04-25 00:21 29.54370 -82.99612 39952 ft 426 kts 334°
2026-04-25 00:22 29.59864 -83.02218 39953 ft 427 kts 334°
2026-04-25 00:22 29.65349 -83.04823 39948 ft 426 kts 334°
2026-04-25 00:23 29.70844 -83.07435 39952 ft 426 kts 334°
2026-04-25 00:23 29.76286 -83.10026 39953 ft 426 kts 334°
2026-04-25 00:24 29.81759 -83.12635 39955 ft 425 kts 334°
2026-04-25 00:24 29.87224 -83.15245 39953 ft 425 kts 334°
2026-04-25 00:25 29.92677 -83.17851 39954 ft 424 kts 334°
2026-04-25 00:25 29.98129 -83.20459 39955 ft 424 kts 334°
2026-04-25 00:26 30.03548 -83.23053 39948 ft 424 kts 335°
2026-04-25 00:26 30.09007 -83.25673 39956 ft 425 kts 335°
2026-04-25 00:27 30.14481 -83.28302 39954 ft 426 kts 335°
2026-04-25 00:27 30.19980 -83.30945 39955 ft 428 kts 335°
2026-04-25 00:28 30.25484 -83.33595 39954 ft 429 kts 335°
2026-04-25 00:28 30.30972 -83.36246 39954 ft 430 kts 335°
2026-04-25 00:29 30.36497 -83.38919 39955 ft 430 kts 335°
2026-04-25 00:29 30.42020 -83.41592 39951 ft 430 kts 335°
2026-04-25 00:30 30.47548 -83.44271 39953 ft 430 kts 335°
2026-04-25 00:30 30.53071 -83.46952 39942 ft 430 kts 335°
2026-04-25 00:31 30.58583 -83.49631 39945 ft 429 kts 335°
2026-04-25 00:31 30.64059 -83.52297 39941 ft 429 kts 335°
2026-04-25 00:32 30.69557 -83.54976 39945 ft 428 kts 335°
2026-04-25 00:32 30.75049 -83.57655 39945 ft 428 kts 335°
2026-04-25 00:33 30.80532 -83.60333 39942 ft 427 kts 335°
2026-04-25 00:33 30.86020 -83.63017 39937 ft 427 kts 335°
2026-04-25 00:34 30.91503 -83.65702 39937 ft 428 kts 335°
2026-04-25 00:34 30.96970 -83.68385 39934 ft 428 kts 335°
2026-04-25 00:35 31.02472 -83.71083 39938 ft 429 kts 335°
2026-04-25 00:35 31.07980 -83.73789 39934 ft 429 kts 335°
2026-04-25 00:36 31.13481 -83.76496 39936 ft 429 kts 335°
2026-04-25 00:36 31.18991 -83.79210 39935 ft 429 kts 336°
2026-04-25 00:37 31.24493 -83.81926 39936 ft 429 kts 336°
2026-04-25 00:37 31.29970 -83.84631 39934 ft 430 kts 336°
2026-04-25 00:38 31.35482 -83.87358 39936 ft 430 kts 336°
2026-04-25 00:38 31.41001 -83.90092 39934 ft 430 kts 336°
2026-04-25 00:39 31.46511 -83.92824 39935 ft 430 kts 336°
2026-04-25 00:39 31.52045 -83.95508 39931 ft 431 kts 340°
2026-04-25 00:40 31.57868 -83.97062 39935 ft 433 kts 348°
2026-04-25 00:40 31.63799 -83.98315 39936 ft 433 kts 349°
2026-04-25 00:41 31.69744 -83.99589 39934 ft 434 kts 348°
2026-04-25 00:41 31.75700 -84.00898 39938 ft 435 kts 348°
2026-04-25 00:42 31.81603 -84.02212 39933 ft 434 kts 348°
2026-04-25 00:42 31.87552 -84.03541 39936 ft 435 kts 348°
2026-04-25 00:43 31.93495 -84.04868 39931 ft 435 kts 348°
2026-04-25 00:43 31.99451 -84.06202 39925 ft 435 kts 348°
2026-04-25 00:44 32.05399 -84.07534 39916 ft 435 kts 348°
2026-04-25 00:44 32.11306 -84.08861 39917 ft 434 kts 348°
2026-04-25 00:45 32.17244 -84.10198 39905 ft 434 kts 348°
2026-04-25 00:45 32.23183 -84.11532 39911 ft 434 kts 348°
2026-04-25 00:46 32.29111 -84.12867 39918 ft 434 kts 348°
2026-04-25 00:47 32.38025 -84.14878 39921 ft 434 kts 348°
2026-04-25 00:47 32.43930 -84.16214 39928 ft 434 kts 348°
2026-04-25 00:48 32.49869 -84.17558 39933 ft 434 kts 348°
2026-04-25 00:48 32.55813 -84.18906 39933 ft 435 kts 348°
2026-04-25 00:49 32.61767 -84.20257 39936 ft 435 kts 348°
2026-04-25 00:49 32.67717 -84.21610 39938 ft 436 kts 348°
2026-04-25 00:50 32.73650 -84.22958 39942 ft 436 kts 348°
2026-04-25 00:50 32.79615 -84.24318 39947 ft 437 kts 348°
2026-04-25 00:51 32.85581 -84.25680 39956 ft 436 kts 348°
2026-04-25 00:51 32.91558 -84.27047 39955 ft 437 kts 348°
2026-04-25 00:52 32.97522 -84.28412 39953 ft 436 kts 348°
2026-04-25 00:52 33.02489 -84.29549 39955 ft 437 kts 348°
2026-04-25 00:53 33.08459 -84.30918 39954 ft 437 kts 348°
2026-04-25 00:53 33.14439 -84.32292 39957 ft 437 kts 348°
2026-04-25 00:54 33.20422 -84.33668 39947 ft 437 kts 348°
2026-04-25 00:54 33.26399 -84.35044 39943 ft 437 kts 348°
2026-04-25 00:55 33.32377 -84.36425 39950 ft 437 kts 348°
2026-04-25 00:55 33.38348 -84.37804 39962 ft 437 kts 348°
2026-04-25 00:56 33.44275 -84.39176 39966 ft 437 kts 348°
2026-04-25 00:56 33.50246 -84.40559 39958 ft 437 kts 348°
2026-04-25 00:57 33.56231 -84.41949 39948 ft 437 kts 348°
2026-04-25 00:57 33.62213 -84.43340 39943 ft 438 kts 349°
2026-04-25 00:58 33.68195 -84.44679 39934 ft 437 kts 349°
2026-04-25 00:58 33.74159 -84.45969 39935 ft 437 kts 349°
2026-04-25 00:59 33.80150 -84.47273 39929 ft 437 kts 349°
2026-04-25 00:59 33.86137 -84.48585 39925 ft 437 kts 349°
2026-04-25 01:00 33.92140 -84.49905 39917 ft 437 kts 349°
2026-04-25 01:00 33.98132 -84.51226 39911 ft 437 kts 349°
2026-04-25 01:01 34.04087 -84.52547 39931 ft 437 kts 348°
2026-04-25 01:01 34.10044 -84.54062 39942 ft 436 kts 347°
2026-04-25 01:02 34.15947 -84.55630 39947 ft 437 kts 347°
2026-04-25 01:02 34.21897 -84.57194 39945 ft 437 kts 347°
2026-04-25 01:03 34.27858 -84.58748 39943 ft 438 kts 347°
2026-04-25 01:03 34.33826 -84.60302 39942 ft 438 kts 347°
2026-04-25 01:04 34.39801 -84.61861 39942 ft 439 kts 347°
2026-04-25 01:04 34.45743 -84.63413 39948 ft 440 kts 347°
2026-04-25 01:05 34.51736 -84.64983 39941 ft 441 kts 347°
2026-04-25 01:05 34.57733 -84.66554 39948 ft 441 kts 347°
2026-04-25 01:06 34.63741 -84.68071 39940 ft 441 kts 348°
2026-04-25 01:06 34.69774 -84.69552 39948 ft 442 kts 348°
2026-04-25 01:07 34.75775 -84.71031 39935 ft 442 kts 347°
2026-04-25 01:07 34.81820 -84.72533 39933 ft 443 kts 347°
2026-04-25 01:08 34.87867 -84.74041 39930 ft 443 kts 347°
2026-04-25 01:08 34.93915 -84.75551 39924 ft 443 kts 347°
2026-04-25 01:09 34.99962 -84.77063 39922 ft 444 kts 347°
2026-04-25 01:09 35.06013 -84.78578 39914 ft 444 kts 347°
2026-04-25 01:10 35.12026 -84.80085 39907 ft 444 kts 347°
2026-04-25 01:10 35.18074 -84.81604 39902 ft 444 kts 347°
2026-04-25 01:11 35.24137 -84.83129 39897 ft 444 kts 347°
2026-04-25 01:11 35.30202 -84.84658 39900 ft 445 kts 347°
2026-04-25 01:12 35.36278 -84.86191 39900 ft 445 kts 347°
2026-04-25 01:12 35.42317 -84.87717 39897 ft 446 kts 347°
2026-04-25 01:13 35.48406 -84.89258 39893 ft 446 kts 347°
2026-04-25 01:13 35.54484 -84.90800 39891 ft 446 kts 347°
2026-04-25 01:14 35.60571 -84.92344 39891 ft 447 kts 347°
2026-04-25 01:14 35.66635 -84.93879 39905 ft 447 kts 347°
2026-04-25 01:15 35.72728 -84.95421 39912 ft 447 kts 347°
2026-04-25 01:15 35.78820 -84.96968 39924 ft 447 kts 347°
2026-04-25 01:16 35.84917 -84.98521 39941 ft 447 kts 347°
2026-04-25 01:16 35.90975 -85.00065 39946 ft 447 kts 347°
2026-04-25 01:17 35.97088 -85.01624 39950 ft 448 kts 347°
2026-04-25 01:17 36.03209 -85.03190 39953 ft 449 kts 346°
2026-04-25 01:18 36.09298 -85.04749 39950 ft 450 kts 346°
2026-04-25 01:18 36.15441 -85.06325 39947 ft 451 kts 346°
2026-04-25 01:19 36.21592 -85.07906 39936 ft 451 kts 346°
2026-04-25 01:19 36.27745 -85.09489 39929 ft 452 kts 346°
2026-04-25 01:20 36.33913 -85.11078 39920 ft 452 kts 346°
2026-04-25 01:20 36.40081 -85.12670 39915 ft 452 kts 346°
2026-04-25 01:21 36.46207 -85.14255 39917 ft 453 kts 346°
2026-04-25 01:21 36.52411 -85.15863 39916 ft 452 kts 346°
2026-04-25 01:22 36.58538 -85.17454 39913 ft 452 kts 346°
2026-04-25 01:22 36.64703 -85.19046 39914 ft 452 kts 346°
2026-04-25 01:23 36.70874 -85.20609 39908 ft 452 kts 346°
2026-04-25 01:23 36.77042 -85.22172 39906 ft 452 kts 346°
2026-04-25 01:24 36.83211 -85.23742 39913 ft 452 kts 346°
2026-04-25 01:24 36.89342 -85.25308 39915 ft 452 kts 346°
2026-04-25 01:25 36.95508 -85.26885 39922 ft 452 kts 346°
2026-04-25 01:25 37.01675 -85.28467 39919 ft 453 kts 346°
2026-04-25 01:26 37.07859 -85.30056 39920 ft 453 kts 346°
2026-04-25 01:26 37.14038 -85.31644 39917 ft 453 kts 346°
2026-04-25 01:27 37.20221 -85.33236 39929 ft 453 kts 346°
2026-04-25 01:27 37.26373 -85.34823 39943 ft 453 kts 346°
2026-04-25 01:28 37.35651 -85.37223 39950 ft 454 kts 345°
2026-04-25 01:28 37.41842 -85.38827 39952 ft 454 kts 345°
2026-04-25 01:29 37.48041 -85.40436 39946 ft 455 kts 345°
2026-04-25 01:29 37.54243 -85.42049 39935 ft 455 kts 345°
2026-04-25 01:30 37.60425 -85.43659 39923 ft 456 kts 345°
2026-04-25 01:30 37.66635 -85.45278 39920 ft 456 kts 345°
2026-04-25 01:31 37.72852 -85.46904 39905 ft 457 kts 345°
2026-04-25 01:31 37.79086 -85.48536 39897 ft 457 kts 345°
2026-04-25 01:32 37.85323 -85.50171 39900 ft 457 kts 345°
2026-04-25 01:32 37.91526 -85.51800 39896 ft 457 kts 345°
2026-04-25 01:33 37.97757 -85.53441 39898 ft 457 kts 345°
2026-04-25 01:33 38.03994 -85.55086 39899 ft 457 kts 344°
2026-04-25 01:34 38.10227 -85.56733 39896 ft 457 kts 344°
2026-04-25 01:34 38.16496 -85.58392 39328 ft 463 kts 344°
2026-04-25 01:35 38.19635 -85.59201 38730 ft 459 kts 346°
2026-04-25 01:35 38.22746 -85.59755 38088 ft 457 kts 350°
2026-04-25 01:35 38.25907 -85.60163 37416 ft 455 kts 351°
2026-04-25 01:35 38.29045 -85.60542 36736 ft 452 kts 351°
2026-04-25 01:36 38.32165 -85.60954 36050 ft 451 kts 351°
2026-04-25 01:36 38.35312 -85.61409 35296 ft 462 kts 351°
2026-04-25 01:36 38.38547 -85.61895 34456 ft 471 kts 351°
2026-04-25 01:36 38.41819 -85.62394 33607 ft 474 kts 351°
2026-04-25 01:37 38.45108 -85.62897 32702 ft 478 kts 351°
2026-04-25 01:37 38.48421 -85.63404 31742 ft 479 kts 351°
2026-04-25 01:37 38.51697 -85.63903 30753 ft 479 kts 351°
2026-04-25 01:37 38.54995 -85.64406 29914 ft 473 kts 351°
2026-04-25 01:38 38.58231 -85.64897 29196 ft 464 kts 351°
2026-04-25 01:38 38.61405 -85.65368 28505 ft 456 kts 351°
2026-04-25 01:38 38.64547 -85.65826 27789 ft 451 kts 351°
2026-04-25 01:38 38.67657 -85.66279 27076 ft 447 kts 351°
2026-04-25 01:39 38.70731 -85.66728 26366 ft 444 kts 351°
2026-04-25 01:39 38.73803 -85.67178 25649 ft 442 kts 351°
2026-04-25 01:39 38.76854 -85.67627 24927 ft 440 kts 351°
2026-04-25 01:39 38.79890 -85.68075 24202 ft 438 kts 351°
2026-04-25 01:40 38.81893 -85.68371 23727 ft 437 kts 351°
2026-04-25 01:40 38.84906 -85.68816 22994 ft 435 kts 351°
2026-04-25 01:40 38.88874 -85.69404 22022 ft 429 kts 351°
2026-04-25 01:40 38.91826 -85.69842 21299 ft 424 kts 351°
2026-04-25 01:41 38.93757 -85.70128 20818 ft 421 kts 351°
2026-04-25 01:41 38.96652 -85.70557 20092 ft 415 kts 351°
2026-04-25 01:41 38.99502 -85.70979 19387 ft 409 kts 351°
2026-04-25 01:41 39.02306 -85.71400 18756 ft 403 kts 350°
2026-04-25 01:42 39.05062 -85.71867 18278 ft 395 kts 349°
2026-04-25 01:42 39.07772 -85.72355 17877 ft 393 kts 349°
2026-04-25 01:42 39.10516 -85.72850 17444 ft 399 kts 349°
2026-04-25 01:42 39.13273 -85.73339 16958 ft 400 kts 349°
2026-04-25 01:43 39.15982 -85.73971 16478 ft 392 kts 339°
2026-04-25 01:43 39.18463 -85.75354 16054 ft 386 kts 332°
2026-04-25 01:43 39.20884 -85.76824 15592 ft 383 kts 332°
2026-04-25 01:43 39.23303 -85.78259 15131 ft 382 kts 332°
2026-04-25 01:44 39.25721 -85.79663 14682 ft 380 kts 332°
2026-04-25 01:44 39.28129 -85.81049 14232 ft 378 kts 332°
2026-04-25 01:44 39.30531 -85.82429 13788 ft 377 kts 332°
2026-04-25 01:44 39.32912 -85.83826 13339 ft 373 kts 329°
2026-04-25 01:45 39.35038 -85.85689 12908 ft 366 kts 317°
2026-04-25 01:45 39.36958 -85.87753 12486 ft 363 kts 316°
2026-04-25 01:45 39.38869 -85.89843 12306 ft 356 kts 316°
2026-04-25 01:45 39.40813 -85.91916 11696 ft 362 kts 317°
2026-04-25 01:46 39.42762 -85.93967 11227 ft 359 kts 317°
2026-04-25 01:46 39.44692 -85.95998 10800 ft 352 kts 317°
2026-04-25 01:46 39.46523 -85.97922 10378 ft 327 kts 317°
2026-04-25 01:46 39.48268 -85.99658 9998 ft 306 kts 319°
2026-04-25 01:47 39.49906 -86.01246 9913 ft 280 kts 318°
2026-04-25 01:47 39.51446 -86.02743 9421 ft 273 kts 318°
2026-04-25 01:47 39.52952 -86.04215 9055 ft 269 kts 318°
2026-04-25 01:47 39.54441 -86.05677 8734 ft 268 kts 318°
2026-04-25 01:48 39.55902 -86.07116 8427 ft 268 kts 318°
2026-04-25 01:48 39.57394 -86.08584 8120 ft 270 kts 318°
2026-04-25 01:48 39.58888 -86.10054 8046 ft 269 kts 318°
2026-04-25 01:48 39.60342 -86.11584 8013 ft 265 kts 314°
2026-04-25 01:49 39.61694 -86.13179 8021 ft 267 kts 313°
2026-04-25 01:49 39.63109 -86.14893 8028 ft 284 kts 313°
2026-04-25 01:49 39.64522 -86.16590 8004 ft 270 kts 313°
2026-04-25 01:49 39.65883 -86.18214 7997 ft 261 kts 313°
2026-04-25 01:50 39.67228 -86.19817 8009 ft 264 kts 313°
2026-04-25 01:50 39.68590 -86.21440 8018 ft 268 kts 313°
2026-04-25 01:50 39.69966 -86.23079 8009 ft 269 kts 313°
2026-04-25 01:50 39.71356 -86.24730 7997 ft 270 kts 313°
2026-04-25 01:51 39.72742 -86.26374 7997 ft 269 kts 313°
2026-04-25 01:51 39.74125 -86.28015 8000 ft 269 kts 313°
2026-04-25 01:51 39.75505 -86.29653 8003 ft 268 kts 313°
2026-04-25 01:51 39.76861 -86.31262 7996 ft 267 kts 313°
2026-04-25 01:52 39.78234 -86.32893 7998 ft 266 kts 313°
2026-04-25 01:52 39.79600 -86.34517 7996 ft 266 kts 313°
2026-04-25 01:52 39.80964 -86.36139 8002 ft 265 kts 313°
2026-04-25 01:52 39.82196 -86.37898 8000 ft 263 kts 296°
2026-04-25 01:53 39.82787 -86.40120 8010 ft 262 kts 276°
2026-04-25 01:53 39.82806 -86.42457 7994 ft 256 kts 259°
2026-04-25 01:53 39.82252 -86.44631 8007 ft 251 kts 246°
2026-04-25 01:53 39.81233 -86.46459 8011 ft 254 kts 224°
2026-04-25 01:54 39.79732 -86.47715 8013 ft 259 kts 207°
2026-04-25 01:54 39.77984 -86.48337 8013 ft 265 kts 188°
2026-04-25 01:54 39.76126 -86.48291 8024 ft 269 kts 180°
2026-04-25 01:54 39.74284 -86.48067 8018 ft 270 kts 179°
2026-04-25 01:55 39.72409 -86.47821 8016 ft 271 kts 179°
2026-04-25 01:55 39.70530 -86.47590 8020 ft 271 kts 179°
2026-04-25 01:55 39.68647 -86.47372 8018 ft 271 kts 179°
2026-04-25 01:55 39.66769 -86.47160 8017 ft 271 kts 179°
2026-04-25 01:56 39.64895 -86.46933 8017 ft 272 kts 175°
2026-04-25 01:56 39.63116 -86.46017 8011 ft 281 kts 149°
2026-04-25 01:56 39.61747 -86.44187 8011 ft 288 kts 125°
2026-04-25 01:56 39.61045 -86.41738 8007 ft 294 kts 99°
2026-04-25 01:57 39.62264 -86.36841 8016 ft 294 kts 43°
2026-04-25 01:57 39.63720 -86.35547 8010 ft 289 kts 19°
2026-04-25 01:57 39.65655 -86.34997 8015 ft 281 kts 357°
2026-04-25 01:58 39.67598 -86.35093 8018 ft 279 kts 351°
2026-04-25 01:58 39.69536 -86.35337 8012 ft 280 kts 349°
2026-04-25 01:58 39.71475 -86.35597 8004 ft 280 kts 349°
2026-04-25 01:58 39.73398 -86.35843 7995 ft 281 kts 350°
2026-04-25 01:59 39.75376 -86.36077 7996 ft 282 kts 350°
2026-04-25 01:59 39.77302 -86.36296 7999 ft 281 kts 351°
2026-04-25 01:59 39.79247 -86.36507 8009 ft 280 kts 351°
2026-04-25 01:59 39.81189 -86.36716 8007 ft 280 kts 351°
2026-04-25 02:00 39.83045 -86.37315 7991 ft 271 kts 327°
2026-04-25 02:00 39.84469 -86.38827 8006 ft 262 kts 304°
2026-04-25 02:00 39.85313 -86.40885 8011 ft 256 kts 283°
2026-04-25 02:00 39.85509 -86.43155 8011 ft 253 kts 263°
2026-04-25 02:01 39.85039 -86.45350 8008 ft 253 kts 243°
2026-04-25 02:01 39.83963 -86.47148 8015 ft 255 kts 222°
2026-04-25 02:01 39.82431 -86.48328 8016 ft 259 kts 204°
2026-04-25 02:01 39.80663 -86.48753 8017 ft 266 kts 184°
2026-04-25 02:02 39.78809 -86.48620 8026 ft 268 kts 180°
2026-04-25 02:02 39.76930 -86.48398 8336 ft 275 kts 179°
2026-04-25 02:02 39.75032 -86.48162 9694 ft 274 kts 179°
2026-04-25 02:02 39.73117 -86.47932 9947 ft 273 kts 179°
2026-04-25 02:03 39.71247 -86.47713 9986 ft 268 kts 179°
2026-04-25 02:03 39.69375 -86.47503 10016 ft 271 kts 179°
2026-04-25 02:03 39.67474 -86.47295 10027 ft 275 kts 179°
2026-04-25 02:03 39.65571 -86.47087 10030 ft 274 kts 179°
2026-04-25 02:04 39.63699 -86.46558 10005 ft 281 kts 159°
2026-04-25 02:04 39.62121 -86.45024 10022 ft 290 kts 134°
2026-04-25 02:04 39.61128 -86.42731 10023 ft 298 kts 109°
2026-04-25 02:04 39.60961 -86.40036 10002 ft 304 kts 82°
2026-04-25 02:05 39.61742 -86.37502 10006 ft 306 kts 53°
2026-04-25 02:05 39.63309 -86.35703 10021 ft 301 kts 24°
2026-04-25 02:05 39.65264 -86.34993 10017 ft 294 kts 360°
2026-04-25 02:05 39.67287 -86.35073 10019 ft 291 kts 351°
2026-04-25 02:06 39.69301 -86.35340 10002 ft 290 kts 345°
2026-04-25 02:06 39.71067 -86.36416 10000 ft 276 kts 312°
2026-04-25 02:06 39.72041 -86.38460 10000 ft 266 kts 280°
2026-04-25 02:06 39.72026 -86.40809 10028 ft 260 kts 258°
2026-04-25 02:07 39.71621 -86.43104 10014 ft 261 kts 255°
2026-04-25 02:07 39.71593 -86.45456 10011 ft 266 kts 284°
2026-04-25 02:07 39.72607 -86.47471 10018 ft 276 kts 316°
2026-04-25 02:07 39.74226 -86.48835 10025 ft 279 kts 324°
2026-04-25 02:08 39.75923 -86.50092 10016 ft 283 kts 331°
2026-04-25 02:08 39.77886 -86.50503 10019 ft 295 kts
2026-04-25 02:08 39.79798 -86.49506 10024 ft 303 kts 35°
2026-04-25 02:08 39.81345 -86.47675 10029 ft 304 kts 44°
2026-04-25 02:09 39.82825 -86.45696 10014 ft 305 kts 45°
2026-04-25 02:09 39.84296 -86.43700 10015 ft 306 kts 45°
2026-04-25 02:09 39.85773 -86.41685 10012 ft 307 kts 45°
2026-04-25 02:09 39.87246 -86.39673 10011 ft 308 kts 45°
2026-04-25 02:10 39.88723 -86.37655 10011 ft 308 kts 45°
2026-04-25 02:10 39.90199 -86.35645 10017 ft 307 kts 45°
2026-04-25 02:10 39.91673 -86.33630 10011 ft 307 kts 45°
2026-04-25 02:10 39.93149 -86.31615 10017 ft 307 kts 45°
2026-04-25 02:11 39.94606 -86.29626 10019 ft 307 kts 45°
2026-04-25 02:11 39.96101 -86.27585 10016 ft 307 kts 45°
2026-04-25 02:11 39.97558 -86.25603 10011 ft 307 kts 45°
2026-04-25 02:11 39.99038 -86.23585 10019 ft 308 kts 45°
2026-04-25 02:12 40.00513 -86.21576 10017 ft 307 kts 45°
2026-04-25 02:12 40.01992 -86.19563 10016 ft 306 kts 45°
2026-04-25 02:12 40.03458 -86.17567 9898 ft 302 kts 45°
2026-04-25 02:12 40.04904 -86.15598 9477 ft 299 kts 45°
2026-04-25 02:13 40.06356 -86.13619 8960 ft 302 kts 45°
2026-04-25 02:13 40.07804 -86.11637 8522 ft 300 kts 45°
2026-04-25 02:13 40.09220 -86.09687 8135 ft 297 kts 45°
2026-04-25 02:13 40.10615 -86.07718 7727 ft 294 kts 51°
2026-04-25 02:14 40.11431 -86.05257 7260 ft 294 kts 85°
2026-04-25 02:14 40.11158 -86.02714 6857 ft 285 kts 118°
2026-04-25 02:14 40.10070 -86.00602 6457 ft 278 kts 133°
2026-04-25 02:14 40.08830 -85.98674 6031 ft 277 kts 134°
2026-04-25 02:15 40.07576 -85.96770 5614 ft 276 kts 134°
2026-04-25 02:15 40.06323 -85.94887 5204 ft 274 kts 134°
2026-04-25 02:15 40.05059 -85.93022 5038 ft 275 kts 134°
2026-04-25 02:15 40.03778 -85.91153 5017 ft 276 kts 135°
2026-04-25 02:16 40.02501 -85.89299 5006 ft 273 kts 135°
2026-04-25 02:16 40.01037 -85.87809 4995 ft 265 kts 163°
2026-04-25 02:16 39.99252 -85.87654 5013 ft 256 kts 199°
2026-04-25 02:16 39.97670 -85.88644 5019 ft 251 kts 218°
2026-04-25 02:17 39.96431 -85.90196 5007 ft 249 kts 234°
2026-04-25 02:17 39.95395 -85.92002 4998 ft 250 kts 236°
2026-04-25 02:17 39.94383 -85.93845 5004 ft 250 kts 236°
2026-04-25 02:17 39.93375 -85.95688 5008 ft 250 kts 236°
2026-04-25 02:18 39.92361 -85.97526 5006 ft 249 kts 236°
2026-04-25 02:18 39.91351 -85.99347 5002 ft 250 kts 236°
2026-04-25 02:18 39.90329 -86.01176 5009 ft 248 kts 236°
2026-04-25 02:18 39.89313 -86.02992 5012 ft 246 kts 236°
2026-04-25 02:19 39.88335 -86.04737 4994 ft 230 kts 236°
2026-04-25 02:19 39.87422 -86.06364 4988 ft 214 kts 236°
2026-04-25 02:19 39.86581 -86.07856 4922 ft 197 kts 236°
2026-04-25 02:19 39.85781 -86.09282 4679 ft 193 kts 236°
2026-04-25 02:20 39.84985 -86.10695 4440 ft 195 kts 237°
2026-04-25 02:20 39.84174 -86.12132 4174 ft 198 kts 236°
2026-04-25 02:20 39.83287 -86.13516 3908 ft 198 kts 230°
2026-04-25 02:20 39.82344 -86.14749 3662 ft 191 kts 228°
2026-04-25 02:21 39.81414 -86.15924 3412 ft 182 kts 228°
2026-04-25 02:21 39.80529 -86.17049 3172 ft 175 kts 228°
2026-04-25 02:21 39.79681 -86.18128 2948 ft 166 kts 229°
2026-04-25 02:21 39.78881 -86.19151 2740 ft 154 kts 227°
2026-04-25 02:22 39.78149 -86.20085 2522 ft 141 kts 225°
2026-04-25 02:22 39.77478 -86.20940 2357 ft 134 kts 223°
2026-04-25 02:22 39.76809 -86.21792 2190 ft 137 kts 227°
2026-04-25 02:22 39.76132 -86.22655 2001 ft 136 kts 225°
2026-04-25 02:23 39.75459 -86.23514 1821 ft 134 kts 225°
2026-04-25 02:23 39.74798 -86.24362 1613 ft 134 kts 226°
2026-04-25 02:23 39.74148 -86.25222 1419 ft 132 kts 226°
2026-04-25 02:23 39.73478 -86.26041 1238 ft 133 kts 225°
2026-04-25 02:24 39.72815 -86.26893 1074 ft 137 kts 225°
2026-04-25 02:24 39.72139 -86.27750 884 ft 137 kts 225°
2026-04-25 02:24 39.71479 -86.28594 781 ft 123 kts 225°
2026-04-25 02:24 39.71013 -86.29178 780 ft 48 kts 224°
2026-04-25 02:25 39.70875 -86.29454 779 ft 30 kts 250°
2026-04-25 02:25 39.70854 -86.29616 780 ft 16 kts 298°
2026-04-25 02:25 39.70906 -86.29613 780 ft 9 kts 45°
2026-04-25 02:25 39.70971 -86.29536 780 ft 16 kts 42°
2026-04-25 02:26 39.71064 -86.29415 780 ft 21 kts 48°
2026-04-25 02:26 39.71183 -86.29265 780 ft 26 kts 43°
2026-04-25 02:26 39.71322 -86.29089 780 ft 30 kts 44°
2026-04-25 02:26 39.71479 -86.28889 780 ft 33 kts 44°
2026-04-25 02:27 39.71581 -86.28818 780 ft 14 kts 331°
2026-04-25 02:27 39.71665 -86.28924 780 ft 19 kts 314°
2026-04-25 02:27 39.71733 -86.29014 780 ft 23 kts 314°
2026-04-25 02:27 39.71856 -86.29175 780 ft 27 kts 314°
2026-04-25 02:28 39.71845 -86.29335 780 ft 11 kts 234°
2026-04-25 02:28 39.71841 -86.29386 780 ft 5 kts 283°
2026-04-25 02:28 39.71859 -86.29424 780 ft 9 kts 310°
2026-04-25 02:28 39.71874 -86.29522 780 ft 14 kts 247°
2026-04-25 02:29 39.71848 -86.29589 780 ft 2 kts 243°
2026-04-25 02:29 39.71847 -86.29592 780 ft 0 kts 243°